CAPE
0 0 0 0 0 0 0 0 0 0 0 0 0 0 0 0 0 0 0 0 0 0 0 0 0 0 0 0 0 0 0 0 0 0 0 0 0 0 0 0 0 0 0 0 0 0 0
0 0 0 0 0 0 0 0 0 0 0 0 0 0 0 0 0 0 0 0 0 0 0 0 0 0 0 0 0 0 0 0 0 0 0 0 0 0 0 0 0 0 0 0 0 0 0
0 0 0 0 0 0 0 0 0 0 0 0 0 0 0 0 0 0 0 0 0 0 0 0 0 0 0 0 0 0 0 0 0 0 0 0 0 0 0 0 0 0 0 0 0 0 0
0 0 0 0 0 0 0 0 0 0 0 0 0 0 0 0 0 0 0 0 0 0 0 0 0 0 0 0 0 0 0 0 0 0 0 0 0 0 0 0 0 0 0 0 0 0 0
0 0 0 0 0 0 0 0 0 0 0 0 0 0 0 0 0 0 0 0 0 0 0 0 0 0 0 0 0 0 0 0 0 0 0 0 0 0 0 0 0 0 0 0 0 0 0
0 0 0 0 0 0 0 0 0 0 0 0 0 0 0 0 0 0 0 0 0 0 0 0 0 0 0 0 0 0 0 0 0 0 0 0 0 0 0 0 0 0 0 0 0 0 0
0 0 0 0 0 0 0 0 0 0 0 0 0 0 0 0 0 0 0 0 0 0 0 0 0 0 0 0 0 0 0 0 0 0 0 0 0 0 0 0 0 0 0 0 0 0 0
0 0 0 0 0 0 0 0 0 0 0 0 0 0 0 0 0 0 0 0 0 0 0 0 0 0 0 0 0 0 0 0 0 0 0 0 0 0 0 0 0 0 0 0 0 0 0
0 0 0 0 0 0 0 0 0 0 0 0 0 0 0 0 0 0 0 0 0 0 0 0 0 0 0 0 0 0 0 0 0 0 0 0 0 0 0 0 0 0 0 0 0 0 0
0 0 0 0 0 0 0 0 0 0 0 0 0 0 0 0 0 0 0 0 0 0 0 0 0 0 0 0 0 0 0 0 0 0 0 0 0 0 0 0 0 0 0 0 0 0 0
0 0 0 0 0 0 0 0 0 0 0 0 0 0 0 0 0 0 0 0 0 0 0 0 0 0 0 0 0 0 0 0 0 0 0 0 0 0 0 0 0 0 0 0 0 0 0
0 1 0 0 0 0 0 0 0 0 0 0 0 0 0 0 0 0 0 0 0 0 0 0 0 0 0 0 0 0 0 0 0 0 0 0 0 0 0 0 0 0 0 0 0 0 0
0 0 1 0 0 0 0 0 0 0 0 0 0 0 0 0 0 0 0 0 0 0 0 0 0 0 0 0 0 0 0 0 0 0 0 0 0 0 0 0 0 0 0 0 0 0 0
0 0 3 0 1 0 0 0 0 0 0 0 0 0 0 0 0 0 0 3 0 0 0 0 0 0 0 0 0 0 0 0 0 0 0 0 0 0 0 0 0 0 0 0 0 0 0
0 3 1 0 0 0 0 0 0 0 0 0 0 1 0 0 0 0 3 0 0 0 0 0 0 0 0 0 0 0 0 0 0 0 0 0 0 0 0 0 0 0 0 0 0 0 0
1 0 3 3 0 0 0 0 0 0 0 0 1 1 2 0 0 0 5 0 0 0 0 0 0 0 0 0 0 0 0 0 0 0 0 0 0 0 0 0 0 0 0 0 0 0 0
0 3 0 1 2 1 0 0 0 0 0 0 2 3 0 0 0 11 1 2 0 0 0 0 0 0 0 0 0 0 0 0 0 0 0 0 0 0 0 0 0 0 0 0 0 0 0
0 0 1 1 2 0 1 1 0 0 0 1 2 2 1 0 2 1 1 0 0 0 0 0 0 0 0 0 0 0 0 0 0 0 0 0 0 0 0 0 0 0 0 0 0 0 0
0 0 0 0 1 1 1 1 1 0 0 1 1 1 2 1 2 2 1 1 0 0 0 0 0 0 0 0 0 0 0 0 0 0 0 0 0 0 0 0 0 0 0 0 0 0 0
0 0 0 0 0 0 0 1 1 1 0 7 17 8 4 15 19 0 1 2 0 0 0 0 0 0 0 0 0 0 0 0 0 0 0 0 0 0 0 0 0 0 0 0 0 0 0
0 0 0 0 0 0 0 0 0 0 1 1 0 0 1 2 10 1 7 2 1 0 0 0 0 0 0 0 0 0 0 0 0 0 0 0 0 0 0 0 0 0 0 0 0 0 0
0 0 0 0 0 0 0 0 0 1 2 2 0 0 0 1 3 7 7 1 1 0 0 0 0 0 0 0 0 0 0 0 0 0 0 0 0 0 0 0 0 0 0 0 0 0 0
0 0 0 0 0 0 0 0 0 0 2 1 1 1 0 0 2 8 5 0 0 0 0 0 0 0 0 0 0 0 0 0 0 0 0 0 0 0 0 1 0 0 0 0 0 0 0
6 6 0 0 0 0 0 1 0 0 3 0 0 0 1 0 0 0 1 5 1 0 0 0 0 0 0 0 0 0 0 0 0 0 0 0 0 1 0 0 0 0 0 0 0 0 0
7 5 5 5 3 3 0 3 7 0 0 0 0 0 0 0 0 0 0 0 3 0 0 2 0 0 0 0 0 1 0 0 0 0 0 0 0 0 0 0 0 0 0 0 0 0 0
7 4 5 5 8 13 8 8 17 17 4 3 1 0 0 0 0 0 0 0 0 1 0 0 0 0 0 1 0 0 0 0 0 0 0 0 0 9 0 0 0 0 0 0 0 0 0
0 0 1 1 3 6 15 16 23 16 25 1 0 0 0 0 0 0 0 0 0 2 0 0 0 0 3 1 0 0 0 0 0 0 0 1 0 0 1 0 0 0 0 0 0 0 0
0 3 0 0 2 11 14 16 13 23 26 4 0 0 0 0 0 1 1 0 0 0 2 0 0 0 0 1 0 0 0 0 0 0 0 0 0 0 0 0 0 0 0 0 0 0 0
0 0 0 4 8 10 20 18 8 27 29 25 3 1 0 0 0 0 0 0 1 1 1 1 1 0 0 0 0 0 0 1 0 0 0 0 0 0 0 0 0 0 0 0 0 0 0
CIN
-0 -0 -0 -0 -0 -0 -0 -0 -0 -0 -0 -0 -0 -0 -0 -0 -0 -0 -0 -0 -0 -0 -0 -0 -0 -0 -0 -0 -0 -0 -0 -0 -0 -0 -0 -0 -0 -0 -0 -0 -0 -0 -0 -0 -0 -0 -0
-0 -0 -0 -0 -0 -0 -0 -0 -0 -0 -0 -0 -0 -0 -0 -0 -0 -0 -0 -0 -0 -0 -0 -0 -0 -0 -0 -0 -0 -0 -0 -0 -0 -0 -0 -0 -0 -0 -0 -0 -0 -0 -0 -0 -0 -0 -0
-0 -0 -0 -0 -0 -0 -0 -0 -0 -0 -0 -0 -0 -0 -0 -0 -0 -0 -0 -0 -0 -0 -0 -0 -0 -0 -0 -0 -0 -0 -0 -0 -0 -0 -0 -0 -0 -0 -0 -0 -0 -0 -0 -0 -0 -0 -0
-0 -0 -0 -0 -0 -0 -0 -0 -0 -0 -0 -0 -0 -0 -0 -0 -0 -0 -0 -0 -0 -0 -0 -0 -0 -0 -0 -0 -0 -0 -0 -0 -0 -0 -0 -0 -0 -0 -0 -0 -0 -0 -0 -0 -0 -0 -0
-0 -0 -0 -0 -0 -0 -0 -0 -0 -0 -0 -0 -0 -0 -0 -0 -0 -0 -0 -0 -0 -0 -0 -0 -0 -0 -0 -0 -0 -0 -0 -0 -0 -0 -0 -0 -0 -0 -0 -0 -0 -0 -0 -0 -0 -0 -0
-0 -0 -0 -0 -0 -0 -0 -0 -0 -0 -0 -0 -0 -0 -0 -0 -0 -0 -0 -0 -0 -0 -0 -0 -0 -0 -0 -0 -0 -0 -0 -0 -0 -0 -0 -0 -0 -0 -0 -0 -0 -0 -0 -0 -0 -0 -0
-0 -0 -0 -0 -0 -0 -0 -0 -0 -0 -0 -0 -0 -0 -0 -0 -0 -0 -0 -0 -0 -0 -0 -0 -0 -0 -0 -0 -0 -0 -0 -0 -0 -0 -0 -0 -0 -0 -0 -0 -0 -0 -0 -0 -0 -0 -0
-0 -0 -0 -0 -0 -0 -0 -0 -0 -0 -0 -0 -0 -0 -0 -0 -0 -0 -0 -0 -0 -0 -0 -0 -0 -0 -0 -0 -0 -0 -0 -0 -0 -0 -0 -0 -0 -0 -0 -0 -0 -0 -0 -0 -0 -0 -0
-0 -0 -0 -0 -0 -0 -0 -0 -0 -0 -0 -0 -0 -0 -0 -0 -0 -0 -0 -0 -0 -0 -0 -0 -0 -0 -0 -0 -0 -0 -0 -0 -0 -0 -0 -0 -0 -0 -0 -0 -0 -0 -0 -0 -0 -0 -0
-0 -0 -0 -0 -0 -0 -0 -0 -0 -0 -0 -0 -0 -0 -0 -0 -0 -0 -0 -0 -0 -0 -0 -0 -0 -0 -0 -0 -0 -0 -0 -0 -0 -0 -0 -0 -0 -0 -0 -0 -0 -0 -0 -0 -0 -0 -0
-0 -0 -0 -0 -0 -0 -0 -0 -0 -0 -0 -0 -0 -0 -0 -0 -0 -0 -0 -0 -0 -0 -0 -0 -0 -0 -0 -0 -0 -0 -0 -0 -0 -0 -0 -0 -0 -0 -0 -0 -0 -0 -0 -0 -0 -0 -0
-0 -0 -0 -0 -0 -0 -0 -0 -0 -0 -0 -0 -0 -0 -0 -0 -0 -0 -0 -0 -0 -0 -0 -0 -0 -0 -0 -0 -0 -0 -0 -0 -0 -0 -0 -0 -0 -0 -0 -0 -0 -0 -0 -0 -0 -0 -0
-0 -0 -0 -0 -0 -0 -0 -0 -0 -0 -0 -0 -0 -0 -0 -0 -0 -0 -0 -0 -0 -0 -0 -0 -0 -0 -0 -0 -0 -0 -0 -0 -0 -0 -0 -0 -0 -0 -0 -0 -0 -0 -0 -0 -0 -0 -0
-0 -0 -5 -0 -0 -0 -0 -0 -0 -0 -0 -0 -0 -0 -0 -0 -0 -0 -0 -2 -0 -0 -0 -0 -0 -0 -0 -0 -0 -0 -0 -0 -0 -0 -0 -0 -0 -0 -0 -0 -0 -0 -0 -0 -0 -0 -0
-0 -0 -0 -0 -0 -0 -0 -0 -0 -0 -0 -0 -0 -0 -0 -0 -0 -0 -2 -0 -0 -0 -0 -0 -0 -0 -0 -0 -0 -0 -0 -0 -0 -0 -0 -0 -0 -0 -0 -0 -0 -0 -0 -0 -0 -0 -0
-0 -0 -0 -0 -0 -0 -0 -0 -0 -0 -0 -0 -0 -0 -1 -0 -0 -4 -1 -0 -0 -0 -0 -0 -0 -0 -0 -0 -0 -0 -0 -0 -0 -0 -0 -0 -0 -0 -0 -0 -0 -0 -0 -0 -0 -0 -0
-0 -0 -0 -0 -0 -0 -0 -0 -0 -0 -0 -0 -0 -14 -0 -0 -0 -8 -0 -0 -0 -0 -0 -0 -0 -0 -0 -0 -0 -0 -0 -0 -0 -0 -0 -0 -0 -0 -0 -0 -0 -0 -0 -0 -0 -0 -0
-0 -0 -0 -0 -0 -0 -0 -0 -0 -0 -0 -0 -0 -22 -0 -0 -1 -0 -0 -0 -0 -0 -0 -0 -0 -0 -0 -0 -0 -0 -0 -0 -0 -0 -0 -0 -0 -0 -0 -0 -0 -0 -0 -0 -0 -0 -0
-0 -0 -0 -0 -0 -0 -0 -0 -0 -0 -0 -0 -0 -4 -0 -12 -0 -0 -0 -0 -0 -0 -0 -0 -0 -0 -0 -0 -0 -0 -0 -0 -0 -0 -0 -0 -0 -0 -0 -0 -0 -0 -0 -0 -0 -0 -0
-0 -0 -0 -0 -0 -0 -0 -0 -0 -0 -0 -16 -6 -2 -3 -2 -11 -0 -0 -0 -0 -0 -0 -0 -0 -0 -0 -0 -0 -0 -0 -0 -0 -0 -0 -0 -0 -0 -0 -0 -0 -0 -0 -0 -0 -0 -0
-0 -0 -0 -0 -0 -0 -0 -0 -0 -0 -0 -0 -6 -6 -7 -1 -0 -2 -1 -1 -0 -0 -0 -0 -0 -0 -0 -0 -0 -0 -0 -0 -0 -0 -0 -0 -0 -0 -0 -0 -0 -0 -0 -0 -0 -0 -0
-0 -0 -0 -0 -0 -0 -0 -0 -0 -0 -0 -0 -0 -0 -0 -33 -7 -0 -0 -2 -0 -0 -0 -0 -0 -0 -0 -0 -0 -0 -0 -0 -0 -0 -0 -0 -0 -0 -0 -0 -0 -0 -0 -0 -0 -0 -0
-0 -0 -0 -0 -0 -0 -0 -0 -0 -0 -0 -0 -0 -0 -0 -0 -2 -0 -1 -0 -0 -0 -0 -0 -0 -0 -0 -0 -0 -0 -0 -0 -0 -0 -0 -0 -0 -0 -0 -0 -0 -0 -0 -0 -0 -0 -0
-0 -0 -0 -0 -0 -0 -0 -0 -0 -0 -0 -0 -0 -0 -0 -0 -0 -0 -1 -1 -0 -1 -0 -0 -0 -0 -0 -0 -0 -0 -0 -0 -6 -0 -0 -0 -0 -0 -0 -0 -0 -0 -0 -0 -0 -0 -0
-0 -1 -1 -0 -1 -0 -0 -0 -1 -0 -0 -0 -0 -0 -0 -0 -0 -0 -0 -0 -0 -0 -0 -5 -0 -0 -0 -0 -0 -0 -0 -0 -0 -0 -0 -0 -0 -0 -0 -0 -0 -0 -0 -0 -0 -0 -0
-1 -1 -1 -1 -0 -0 -0 -0 -0 -0 -1 -1 -0 -0 -0 -0 -0 -0 -0 -0 -0 -2 -0 -0 -0 -0 -0 -6 -0 -0 -0 -0 -0 -0 -0 -0 -0 -4 -0 -0 -0 -0 -0 -0 -0 -0 -0
-0 -0 -0 -2 -0 -1 -0 -0 -0 -1 -0 -1 -0 -3 -0 -0 -0 -0 -0 -0 -0 -0 -0 -0 -0 -0 -6 -0 -0 -0 -0 -0 -0 -0 -0 -0 -0 -0 -0 -0 -0 -0 -0 -0 -0 -0 -0
-0 -1 -2 -1 -0 -0 -0 -0 -2 -1 -1 -4 -0 -0 -0 -0 -0 -0 -0 -0 -0 -1 -0 -0 -0 -0 -0 -0 -0 -0 -0 -0 -0 -0 -0 -0 -0 -0 -0 -0 -0 -0 -0 -0 -0 -0 -0
-0 -0 -0 -3 -3 -2 -0 -0 -4 -2 -2 -3 -0 -0 -0 -0 -0 -0 -0 -0 -0 -0 -0 -0 -0 -0 -0 -0 -0 -0 -0 -0 -0 -0 -0 -0 -0 -0 -0 -0 -0 -0 -0 -0 -0 -0 -0
Wind_Speed
42 42 38 37 34 33 33 32 27 27 26 25 24 26 26 26 27 28 29 31 32 31 32 35 35 33 26 28 19 18 19 20 20 18 18 18 18 17 17 17 20 14 22 17 28 31 28
44 42 40 37 36 34 34 32 30 28 27 27 25 26 27 27 29 30 31 32 33 32 33 35 33 28 25 30 15 19 20 21 19 17 17 17 17 17 19 19 21 21 27 33 32 34 14
44 42 42 38 37 35 34 33 32 29 28 27 27 26 27 29 29 31 32 33 34 34 34 34 26 20 22 18 15 17 17 19 18 18 18 17 16 18 20 24 22 26 31 30 29 28 26
45 43 42 40 38 36 34 34 32 30 30 27 27 27 28 29 30 32 34 35 36 36 35 27 20 19 19 16 13 12 13 19 17 18 18 18 16 19 19 21 25 26 24 28 21 25 23
46 43 43 41 39 37 35 33 32 31 30 28 28 27 28 29 30 32 35 37 38 32 24 18 20 19 23 17 15 14 12 18 21 22 20 19 17 18 20 21 25 23 25 24 25 19 22
46 44 43 41 39 38 36 34 33 31 29 29 28 26 27 28 29 31 35 37 30 20 19 19 18 19 16 18 16 16 15 22 24 22 20 19 19 16 18 16 15 20 23 24 24 22 28
47 44 43 42 40 37 37 34 32 31 29 28 27 26 25 27 28 29 31 25 25 23 21 20 20 16 20 19 19 19 15 20 16 16 11 20 22 9 2 6 17 24 27 29 28 28 29
47 45 43 41 40 38 36 35 33 31 29 27 27 26 24 24 26 26 25 23 22 23 31 23 16 14 17 19 23 18 11 15 16 11 13 16 17 4 11 18 20 26 30 30 28 25 28
48 46 44 42 40 38 37 35 33 31 29 27 25 25 23 23 24 24 23 21 23 25 30 28 19 17 15 10 15 15 11 15 17 13 7 7 14 20 8 2 8 13 10 18 25 29 28
49 47 45 41 39 38 37 35 33 31 29 27 25 23 21 20 24 22 23 22 21 18 31 28 23 18 12 12 16 12 10 16 17 16 10 15 15 16 17 10 3 13 16 16 22 24 27
52 49 46 43 41 39 38 36 33 32 29 27 24 22 19 18 20 20 19 20 16 20 36 21 17 12 12 12 13 14 12 15 16 16 14 17 17 11 12 11 8 17 18 20 21 24 28
52 50 48 45 43 41 39 36 34 32 30 27 24 22 18 20 24 19 17 17 18 27 31 23 14 13 13 15 16 15 15 16 16 16 18 20 18 16 14 11 8 16 19 25 24 22 23
32 44 48 47 44 43 41 39 36 33 31 28 24 22 21 17 24 19 17 16 30 31 24 26 20 14 13 18 18 17 16 15 17 19 20 21 18 16 13 15 15 16 22 25 23 20 19
31 33 43 46 48 45 42 40 39 35 31 28 24 22 24 22 19 15 17 22 36 28 26 22 18 17 20 18 23 20 21 21 19 20 19 20 24 14 13 13 17 17 16 17 26 21 24
32 29 31 40 43 44 46 43 39 36 33 29 24 28 30 27 20 18 21 37 36 30 30 25 22 26 27 25 24 22 24 25 21 15 21 21 26 21 18 17 15 19 20 21 25 28 25
32 35 37 37 34 42 41 42 40 37 35 30 33 34 36 24 21 24 30 40 35 29 26 25 31 26 30 26 24 24 24 26 27 18 19 25 31 24 20 20 20 21 15 23 23 30 25
33 34 33 31 35 36 36 35 36 37 36 32 34 40 34 25 23 31 44 42 38 29 26 30 32 33 32 30 29 28 30 28 24 23 20 23 28 30 27 25 24 23 22 23 26 24 30
36 35 32 34 33 33 34 27 33 35 35 34 36 41 24 29 37 41 46 42 33 32 32 35 32 30 36 33 35 34 32 29 21 21 25 24 29 35 29 27 27 27 25 22 27 29 31
40 40 36 33 32 33 33 33 30 35 32 35 43 36 29 31 47 48 44 45 43 39 37 37 37 31 32 36 41 37 31 28 21 23 25 24 30 39 35 29 26 26 26 25 26 30 36
41 41 39 38 37 34 33 35 35 34 39 39 34 38 34 36 43 47 44 45 46 39 41 39 39 36 37 41 39 40 36 30 27 29 29 25 32 35 44 36 27 29 29 27 29 37 37
40 43 41 44 43 43 42 41 38 40 37 40 40 46 36 46 45 50 45 45 45 45 38 35 44 38 37 45 43 43 37 34 30 30 31 30 43 40 42 39 38 41 39 33 34 35 38
35 37 42 42 43 44 46 43 40 40 38 44 47 44 42 44 48 45 46 51 51 44 40 46 46 39 39 47 41 45 37 37 37 30 31 32 44 39 54 45 43 51 48 41 38 38 43
37 36 36 36 37 40 40 39 36 32 31 41 39 38 43 47 49 53 53 57 54 45 49 48 44 43 42 42 39 39 40 41 39 39 37 36 39 40 53 42 44 50 45 44 45 42 40
36 37 37 39 39 38 39 38 36 34 32 35 34 38 47 59 52 52 53 57 58 53 54 44 41 44 40 29 35 37 41 45 42 45 40 40 38 41 50 40 49 46 41 36 38 36 34
32 35 37 39 40 41 40 39 37 36 33 30 30 37 42 55 54 54 57 62 54 52 52 53 44 42 33 36 41 44 44 45 50 49 46 40 42 46 46 49 50 56 38 36 37 50 35
27 30 35 39 39 41 42 41 39 37 36 36 30 26 35 50 57 53 57 53 55 55 49 45 39 33 30 35 38 47 49 42 44 41 37 42 41 45 43 48 53 50 33 27 28 51 28
30 32 36 39 41 42 42 42 41 40 38 37 34 27 32 47 41 40 50 56 48 44 46 43 42 40 35 43 48 48 49 42 49 49 41 38 39 45 50 51 47 38 29 20 41 47 32
30 34 39 41 42 43 44 44 43 42 39 38 40 35 36 42 38 35 35 42 40 45 52 36 37 39 37 46 48 43 44 41 44 43 42 43 43 46 45 48 52 27 28 38 38 32 32
26 26 28 27 41 43 43 42 42 42 40 36 38 34 32 37 36 35 39 39 36 33 36 36 38 35 36 41 39 37 43 40 43 49 36 44 42 43 42 44 36 27 31 29 33 35 34
Wind_Direction
240 241 241 244 245 248 252 255 260 264 269 275 281 284 288 295 296 299 302 305 301 299 304 323 319 354 15 5 17 25 2 344 338 339 331 322 318 320 313 315 307 318 300 315 282 262 251
240 240 241 242 244 247 250 254 258 263 267 272 280 284 289 292 295 297 300 304 302 292 298 317 336 356 1 350 33 16 6 346 340 339 334 329 321 316 313 310 303 308 294 271 276 257 232
239 239 241 242 244 246 249 253 257 261 266 271 277 284 289 291 296 296 298 299 300 293 293 317 344 4 356 4 30 12 14 5 354 346 329 329 327 316 311 299 306 299 290 291 296 296 304
238 238 240 241 243 245 248 252 256 260 265 271 276 282 288 292 295 296 295 296 296 295 300 330 349 0 351 8 20 23 13 356 355 341 333 329 328 317 311 308 301 299 305 294 315 304 315
237 237 239 241 242 245 247 250 254 259 263 269 275 281 287 292 295 298 295 294 294 310 327 343 344 351 342 4 9 19 9 347 335 329 318 322 326 317 311 305 297 301 295 301 305 320 319
236 237 238 240 241 244 246 249 253 257 262 267 273 279 286 292 297 299 298 293 310 326 333 337 343 346 353 351 0 359 358 333 323 323 312 312 312 314 310 311 312 306 299 300 302 306 301
234 235 237 239 241 242 246 248 251 256 260 265 271 278 285 291 297 303 307 315 314 316 325 321 324 327 326 336 342 339 343 334 339 333 326 306 297 303 286 319 308 297 291 287 293 299 293
233 234 236 237 239 241 244 247 250 254 258 263 268 275 282 290 296 303 310 312 315 318 309 316 310 312 318 328 333 353 25 354 341 336 326 314 304 294 314 302 298 286 279 284 296 301 297
232 234 235 236 238 240 243 245 248 251 255 260 266 272 280 288 296 300 304 308 310 318 309 311 323 330 336 351 340 351 24 2 343 346 344 326 322 314 319 267 314 311 322 316 300 293 297
233 233 235 236 237 239 242 244 246 249 253 257 262 268 275 285 289 296 297 307 312 323 307 306 311 329 341 348 338 3 13 358 338 341 345 322 314 312 311 312 329 315 313 321 306 311 306
233 233 235 236 237 239 241 243 244 248 250 254 257 262 267 275 285 290 303 311 316 320 297 316 316 342 337 328 341 340 357 344 336 332 340 327 321 317 314 311 326 307 315 313 314 312 312
233 233 235 236 237 238 240 242 243 245 248 250 252 256 258 272 278 289 301 304 308 295 289 301 318 320 318 311 319 333 330 337 334 322 316 310 319 321 314 321 324 313 312 306 312 317 311
231 234 237 237 237 238 239 241 242 243 244 247 248 248 253 263 273 276 289 291 283 278 296 290 298 306 307 299 303 307 309 316 316 316 311 312 308 314 316 312 314 310 308 311 314 316 313
232 240 241 236 238 238 238 240 240 240 242 243 244 244 254 259 271 267 274 273 269 281 273 298 301 298 292 294 297 295 299 299 301 308 312 308 304 304 309 300 305 304 304 307 308 312 310
246 245 248 240 239 241 238 238 239 240 240 240 240 249 253 251 256 259 254 261 268 272 276 283 293 289 287 287 290 290 285 290 297 292 301 305 301 305 305 307 303 301 296 304 304 308 303
254 247 246 246 245 246 236 237 239 238 237 232 242 250 251 242 240 254 252 258 265 267 277 277 279 285 283 279 279 282 283 290 287 289 297 301 296 298 301 303 299 297 304 300 304 307 308
255 253 250 251 244 246 237 236 241 238 236 228 242 250 249 226 230 244 248 260 259 265 271 275 277 282 279 276 277 280 286 288 285 290 289 296 294 295 294 287 285 288 289 295 299 296 304
251 252 250 245 247 245 246 244 240 236 237 235 249 244 229 214 236 247 248 250 262 260 265 270 279 278 271 276 278 278 279 281 283 287 288 292 297 290 288 294 290 284 279 280 282 293 295
251 251 250 252 251 250 249 246 244 238 232 242 247 253 232 222 241 240 257 259 257 262 256 264 268 274 275 274 273 278 280 282 277 280 287 291 292 290 293 293 291 285 282 282 287 291 285
252 251 251 251 251 251 248 248 247 245 238 244 253 249 246 238 236 242 248 257 257 253 261 259 266 270 273 271 272 279 279 281 279 280 284 284 283 282 284 290 294 285 281 279 278 282 288
259 254 252 249 251 249 247 248 251 250 249 245 252 249 249 243 244 243 246 256 254 255 249 253 262 259 266 271 272 271 280 279 285 284 280 276 278 282 284 285 284 284 281 278 274 277 279
263 261 256 255 254 251 250 251 253 250 251 247 246 250 253 255 245 245 246 249 251 253 255 254 261 262 262 265 265 275 275 273 276 286 279 278 277 281 281 283 285 281 276 275 271 276 279
262 260 259 257 256 255 254 254 252 251 252 253 253 260 253 252 250 247 247 249 251 254 258 258 258 263 260 258 269 274 276 276 276 274 274 275 275 279 281 283 287 282 273 272 276 276 277
261 259 258 258 255 254 253 251 249 246 246 256 258 256 250 250 248 248 251 252 254 255 254 260 258 256 258 284 278 280 279 276 274 270 270 274 270 275 280 284 277 280 284 281 281 278 275
260 260 258 257 255 252 251 250 247 244 242 254 256 258 256 254 252 253 254 253 259 257 257 257 258 261 269 271 274 276 278 277 272 269 266 263 270 277 277 277 282 283 284 285 285 287 283
265 264 261 258 255 252 250 248 245 242 240 246 255 260 259 256 254 258 255 255 257 257 257 259 265 264 267 267 268 268 272 276 277 280 269 265 264 269 277 279 280 288 290 286 293 288 300
274 270 267 263 258 253 250 246 243 240 238 240 252 253 260 258 262 262 257 256 258 260 261 262 261 262 259 263 265 269 269 271 270 272 277 269 269 265 272 276 282 283 292 293 284 292 306
287 281 275 268 259 253 248 245 242 240 237 239 247 246 253 259 263 263 266 261 266 259 258 266 262 262 263 260 263 266 270 267 271 273 273 269 272 272 275 276 281 284 285 279 292 301 303
301 298 290 279 258 248 245 241 239 238 235 233 249 243 247 257 264 264 262 263 265 267 265 262 266 267 259 264 265 267 268 269 271 271 272 270 268 275 274 280 289 285 287 287 295 298 302